sat.trackr.live / text

‹ back to catalog

2023-069B

NORAD 56732 · 2023-069B

PAYLOAD ACTIVE UNKNOWN

§ Identity

Operator
Country
PRC
Launch date
2023-05-21
Launch site
JSC
Launch vehicle
Mass (kg)
RCS (m²)

External: N2YO · Heavens-Above · Gunter

§ Orbital elements

Epoch: 2026-09-21T23:40:10.474176Z

Period
95.28 min
Inclination
41.0079°
Eccentricity
0.0011502
Mean motion
15.11258595 rev/d
Perigee alt
524.4 km
Apogee alt
540.3 km
Semi-major
6,910.5 km
B*
1.9657e-4
RAAN
239.0829°
Arg perigee
200.5830°
Mean anomaly
159.4521°
Rev number
18,487

§ Raw data

2023-069B1 56732U 23069B   26264.98623234  .00003188  00000+0  19657-3 0  99902 56732  41.0079 239.0829 0011502 200.5830 159.4521 15.11258595184873

JSON: /api/v1/satellites/56732 · /tle

For live sub-satellite position, see the globe view (requires WebGL).

§ Visibility from observer

Set your observer location to see the next 7 days of passes ≥ 10°. The values pass through the URL so the page stays shareable.

No JS? Fill the form by hand. The geolocation button needs JavaScript.